Tracking 20719 objects as of 25-May-2020
HD Live streaming from Space Station
objects crossing your sky now

IRIDIUM 33 DEB

Track IRIDIUM 33 DEB now!
10-day predictions


NORAD ID: 39793
Int'l Code: 1997-051ABA
Perigee: 338.4 km
Apogee: 358.2 km
Inclination: 86.3 °
Period: 91.4 minutes
Semi major axis: 6719 km
RCS: 0.0109 m2 (small)
Launch date: September 14, 1997
Source: United States (US)
Launch site: TYURATAM MISSILE AND SPACE COMPLEX (TTMTR)

Note: This is SATELLITE DEBRIS
aabbcc
Your satellite tracking list
Your tracking list is empty




NASA's NSSDC Master Catalog

Two Line Element Set (TLE):
1 39793U 97051ABA 20128.57174379 +.00920687 +00000-0 +52841-2 0  9993
2 39793 086.3262 083.2042 0014748 145.3705 214.8532 15.76233498805521
Source of the keplerian elements: AFSPC